This is the latest recevied weather packets stored in our database for station/object WW3TRG. If no packets are shown the sender has not sent any weather packets the latest 10 day(s).
| Time | Temp. | Humidity | Pressure | Rain* | Wind** | Luminosity | Snow |
|---|---|---|---|---|---|---|---|
| 1778172329 | 15.56° C | 39% | 1009.5 hPa | 0 mm | - | 667 W/m² | - |
| 1778172026 | 16.11° C | 42% | 1009.7 hPa | 0 mm | - | 663 W/m² | - |
| 1778171722 | 15.56° C | 42% | 1009.7 hPa | 0 mm | - | 669 W/m² | - |
| 1778171421 | 15.56° C | 40% | 1009.8 hPa | 0 mm | - | 433 W/m² | - |
| 1778171115 | 15.56° C | 43% | 1009.8 hPa | 0 mm | - | 678 W/m² | - |
| 1778170813 | 15.56° C | 41% | 1009.9 hPa | 0 mm | - | 664 W/m² | - |
| 1778170509 | 15.56° C | 42% | 1009.8 hPa | 0 mm | - | 650 W/m² | - |
| 1778170206 | 15.56° C | 43% | 1010.1 hPa | 0 mm | - | 691 W/m² | - |
| 1778169902 | 15° C | 39% | 1010 hPa | 0 mm | - | 672 W/m² | - |
| 1778169597 | 15° C | 47% | 1010.2 hPa | 0 mm | - | 630 W/m² | - |
| 1778169294 | 15° C | 44% | 1010.2 hPa | 0 mm | - | 723 W/m² | - |
| 1778168991 | 15° C | 43% | 1010.1 hPa | 0 mm | - | 613 W/m² | - |
| 1778168688 | 15° C | 45% | 1010.3 hPa | 0 mm | - | 609 W/m² | - |
| 1778168385 | 15° C | 44% | 1010.6 hPa | 0 mm | - | 602 W/m² | - |
| 1778168082 | 14.44° C | 43% | 1010.5 hPa | 0 mm | - | 609 W/m² | - |
| 1778167778 | 15° C | 44% | 1010.4 hPa | 0 mm | - | 569 W/m² | - |
| 1778167474 | 15° C | 47% | 1010.6 hPa | 0 mm | - | 555 W/m² | - |
| 1778167170 | 14.44° C | 46% | 1010.5 hPa | 0 mm | - | 618 W/m² | - |
| 1778166866 | 13.89° C | 47% | 1010.7 hPa | 0 mm | - | 626 W/m² | - |
| 1778166564 | 14.44° C | 48% | 1010.8 hPa | 0 mm | - | 580 W/m² | - |
| 1778166261 | 13.89° C | 46% | 1010.9 hPa | 0 mm | - | 651 W/m² | - |
| 1778165957 | 14.44° C | 46% | 1010.8 hPa | 0 mm | - | 625 W/m² | - |
| 1778165653 | 13.89° C | 49% | 1011.1 hPa | 0 mm | - | 662 W/m² | - |
| 1778165350 | 14.44° C | 56% | 1011.2 hPa | 0 mm | - | 532 W/m² | - |
| 1778165047 | 13.89° C | 46% | 1011.3 hPa | 0 mm | - | 585 W/m² | - |
* Rain latest hour (hover to see other rain measurements)
** Current wind speed in m/s (hover to see current wind gust speed)